CZ-6A DEB

Satellite information

Favourite Embed

Satellite Type and Status

DEBRISIN ORBIT

Key statistics

Satellite CZ-6A DEB at a glance.

Uptime

1033

Days in orbit

Revolutions

≈ 14.0

Per day

Orbit

SSO

Sun Synchronous Orbit

Inclination

98.9

Latest

Satellite identification and parameters

Extended collection of information and parameters for CZ-6A DEB.

Object identification

Identified? True

Debris? True

Object name: CZ-6A DEB

International designator: 2022-151DL

Object number (NORAD): 54388

Object ID (CCSDS): 54388

Country: PEOPLES REPUBLIC OF CHINA (PRC)

Current information (Y/N): Y

RCS size: SMALL

Orbital parameters

Period: 102.494 minutes

Inclination: 98.857 deg

SMA: 7254.815 km

Apoapsis: 942.055 km

Periapsis: 811.304 km

RAAN: 240.8925 deg

Eccentricy: 0.00901133

Argument of periapsis: 97.928 deg

Mean anomaly: 263.2127 deg

Mean motion: 14.04957778 rev/day

Mean motion (dot): 0.00001671 rev/day2

B* drag term: 0.0010267909 1/REarth

Two-line elements (TLE)

Creation date: Sept. 8, 2025, 6:18 p.m.

Reference frame: TEME

Reference center: EARTH

Epoch: Sept. 8, 2025, 12:53 p.m. UTC

TLE line 0: 0 CZ-6A DEB

TLE line 1: 1 54388U 22151DL 25251.53691826 .00001671 00000-0 10268-2 0 9998

TLE line 2: 2 54388 98.8570 240.8925 0090113 97.9280 263.2127 14.04957778144055

Live tracking on map

Real-time ground track for satellite CZ-6A DEB.

In-orbit conjunctions

A list of the most updated potential collisions computed for object CZ-6A DEB.

Target Orbit TCA Probability of collision Miss distance Type
CZ-4 DEB SSO 2024-11-11 12:40:17 0.001771383 209.0 (m) DEBRIS
PORCUPINE 1 LEO 2024-09-24 09:43:14 0.0001314115 364.0 (m) PAYLOAD

Associated space launch

Chinese satellite reported for atmospheric/ocean/environmental/spatial parameter research purposes, details TBD.

CZ-6A DEB was lifted into orbit during the mission ‘Long March 6A | Yunhai 3’, on board a Long March 6A space rocket.

The launch took place on Nov. 11, 2022, 10:52 p.m. from Launch Complex 9A.

For more information about the launch, click the button.

Launch to space Long March 6A | Yunhai 3
Long March 6A | Yunhai 3

Agency: N/A

Status: Launch Successful

Launch date: Nov. 11, 2022, 10:52 p.m. UTC

Rocket: Long March 6A

Launch pad: Launch Complex 9A

Location: Taiyuan Satellite Launch Center, People's Republic of China

...

Latest news about this satellite

There are no fresh news available about this satellite. Check back as we update our databases every day.


Newsletter sign-up

Weekly statistics, charts and insights to help you stay on top of the space industry.